Charlottesville, VA

1:37 PM EDT on October 20, 2019 (GMT -0400)
Charlottesville-Albemarle

Weather History for KCHO - August, 2019

Change the Weather History Date:

Friday, August 23, 2019

  Actual Average Record
Temperature  
Mean Temperature 73 °F 73 °F  
Max Temperature 80 °F 84 °F 100 °F (1983)
Min Temperature 66 °F 63 °F 52 °F (1925)
Degree Days  
Heating Degree Days 0 0  
Month to date heating degree days 0 0  
Since 1 June heating degree days 0 12  
Since 1 July heating degree days 0 1  
Cooling Degree Days 8 8  
Month to date cooling degree days 331 218  
Year to date cooling degree days 1399 848  
Since 1 June cooling degree days 1113 762  
Growing Degree Days 23 (Base 50)    
Moisture  
Dew Point 66 °F    
Average Humidity 85    
Maximum Humidity 94    
Minimum Humidity 69    
Precipitation  
Precipitation 0.62 in 0.10 in 1.12 in (2014)
Month to date precipitation 2.65 2.87  
Year to date precipitation 27.95 27.39  
Sea Level Pressure  
Sea Level Pressure 30.01 in    
Wind  
Wind Speed 6 mph ()    
Max Wind Speed 17 mph    
Max Gust Speed 23 mph    
Visibility 5.9 miles    
Events Fog , Rain , Thunderstorm    
T = Trace of Precipitation, MM = Missing Value Source: Averaged Metar Reports

Daily Weather History Graph

Daily Weather History Graph

Search for Another Location

Airport or City:

Astronomy

Aug. 23, 2019 Rise Set
Actual Time 6:35 AM EDT 7:56 PM EDT
Civil Twilight 6:07 AM EDT 8:24 PM EDT
Nautical Twilight 5:34 AM EDT 8:57 PM EDT
Astronomical Twilight 5:00 AM EDT 9:31 PM EDT
Moon No Moon Rise 2:03 PM EDT (8/23)
Length of Visible Light 14h 16m
Length of Day
13h 21m
Waning Gibbous, 50% of the Moon is Illuminated
Aug 23
Waning Gibbous
Aug 30
New
Sep 5
First Quarter
Sep 14
Full
Sep 21
Last Quarter

Hourly Weather History & Observations

Time (EDT) Temp. Dew Point Humidity Pressure Visibility Wind Dir Wind Speed Gust Speed Precip Events Conditions
12:23 AM 73.0 °F 70.0 °F 90% 29.97 in 8.0 mi South 8.1 mph - N/A   Partly Cloudy
12:42 AM 73.0 °F 70.0 °F 90% 29.96 in 8.0 mi SSW 6.9 mph - N/A   Mostly Cloudy
12:53 AM 73.0 °F 70.0 °F 90% 29.94 in 7.0 mi SSW 5.8 mph - N/A   Mostly Cloudy
1:53 AM 73.0 °F 70.0 °F 90% 29.94 in 8.0 mi SSW 6.9 mph - N/A   Mostly Cloudy
2:53 AM 73.0 °F 69.1 °F 87% 29.92 in 7.0 mi SSW 5.8 mph - N/A   Partly Cloudy
3:20 AM 73.0 °F 69.1 °F 87% 29.95 in 5.0 mi Calm Calm - N/A   Mostly Cloudy
3:53 AM 73.0 °F 69.1 °F 87% 29.94 in 6.0 mi Calm Calm - N/A   Overcast
4:53 AM 73.0 °F 69.1 °F 87% 29.95 in 5.0 mi Calm Calm - N/A   Overcast
5:53 AM 73.0 °F 69.1 °F 87% 29.96 in 2.0 mi Calm Calm - N/A   Overcast
6:19 AM 72.0 °F 69.1 °F 91% 29.98 in 0.5 mi Calm Calm - N/A Fog Fog
6:53 AM 72.0 °F 69.1 °F 91% 29.97 in 0.2 mi Calm Calm - N/A Fog Fog
7:47 AM 71.6 °F 69.8 °F 94% 29.99 in 2.5 mi NE 4.6 mph - N/A   Overcast
7:53 AM 73.0 °F 70.0 °F 90% 29.97 in 3.0 mi NE 4.6 mph - N/A   Overcast
8:49 AM 73.4 °F 69.8 °F 88% 30.00 in 8.0 mi NNE 5.8 mph - N/A   Scattered Clouds
8:53 AM 75.0 °F 70.0 °F 84% 29.98 in 10.0 mi North 3.5 mph - N/A   Partly Cloudy
9:53 AM 79.0 °F 68.0 °F 69% 29.99 in 10.0 mi NE 11.5 mph - N/A   Mostly Cloudy
10:53 AM 78.1 °F 69.1 °F 74% 30.00 in 10.0 mi Variable 5.8 mph - N/A   Overcast
11:05 AM 78.1 °F 68.0 °F 71% 30.02 in 10.0 mi NE 6.9 mph - N/A   Overcast
11:53 AM 78.1 °F 68.0 °F 71% 30.00 in 10.0 mi NE 10.4 mph - 0.00 in Rain Light Rain
12:33 PM 75.9 °F 68.0 °F 76% 30.02 in 10.0 mi NNE 15.0 mph - 0.00 in   Overcast
12:38 PM 73.0 °F 66.9 °F 81% 30.02 in 10.0 mi NNE 16.1 mph 21.9 mph 0.00 in   Overcast
12:49 PM 71.6 °F 66.2 °F 83% 30.02 in 8.0 mi NNE 13.8 mph 23.0 mph 0.00 in Rain Light Rain
12:53 PM 72.0 °F 66.0 °F 81% 30.00 in 6.0 mi NNE 11.5 mph 23.0 mph 0.00 in Rain Light Rain
1:25 PM 71.1 °F 64.9 °F 81% 30.02 in 9.0 mi NE 10.4 mph - 0.00 in Rain Light Rain
1:36 PM 70.0 °F 64.9 °F 84% 30.02 in 1.8 mi NNE 13.8 mph - 0.07 in Rain Heavy Rain
1:44 PM 70.0 °F 64.9 °F 84% 30.02 in 1.2 mi NNE 11.5 mph - 0.10 in Rain Rain
1:53 PM 69.1 °F 66.0 °F 90% 30.00 in 2.0 mi NE 11.5 mph - 0.12 in Rain Rain
2:17 PM 69.1 °F 64.9 °F 87% 30.03 in 2.0 mi NNE 13.8 mph - 0.02 in Rain Light Rain
2:24 PM 69.1 °F 64.9 °F 87% 30.03 in 2.0 mi NNE 9.2 mph - 0.02 in Rain Light Rain
2:41 PM 68.0 °F 64.0 °F 87% 30.03 in 2.0 mi NNE 16.1 mph 21.9 mph 0.05 in Rain Heavy Rain
2:45 PM 69.1 °F 64.0 °F 84% 30.04 in 2.0 mi NNE 11.5 mph 21.9 mph 0.06 in Rain , Thunderstorm Rain
2:53 PM 68.0 °F 64.9 °F 90% 30.02 in 2.0 mi NNE 10.4 mph - 0.12 in Rain , Thunderstorm Heavy Rain
2:56 PM 68.0 °F 64.9 °F 90% 30.04 in 1.2 mi NNE 10.4 mph - 0.01 in Rain , Thunderstorm Heavy Thunderstorms and Rain
3:12 PM 68.0 °F 64.9 °F 90% 30.03 in 0.8 mi Variable 6.9 mph - 0.24 in Rain Heavy Rain
3:17 PM 68.0 °F 64.9 °F 90% 30.03 in 1.0 mi ENE 9.2 mph - 0.26 in Rain Rain
3:38 PM 68.0 °F 64.9 °F 90% 30.01 in 3.0 mi NNE 10.4 mph - 0.36 in Rain Rain
3:53 PM 69.1 °F 64.9 °F 87% 30.00 in 6.0 mi NNE 10.4 mph - 0.37 in Rain Light Rain
4:13 PM 70.0 °F 64.9 °F 84% 30.02 in 7.0 mi NE 10.4 mph - 0.00 in   Scattered Clouds
4:21 PM 71.1 °F 66.0 °F 84% 30.03 in 7.0 mi NNE 12.7 mph - 0.00 in   Mostly Cloudy
4:30 PM 71.1 °F 66.0 °F 84% 30.03 in 7.0 mi NNE 12.7 mph - 0.00 in   Mostly Cloudy
4:53 PM 71.1 °F 64.9 °F 81% 30.01 in 7.0 mi NE 10.4 mph - 0.00 in   Mostly Cloudy
5:00 PM 71.1 °F 64.9 °F 81% 30.03 in 10.0 mi NE 9.2 mph - N/A   Overcast
5:50 PM 71.6 °F 64.4 °F 78% 30.03 in 10.0 mi ENE 8.1 mph - N/A   Overcast
5:53 PM 71.1 °F 64.0 °F 78% 30.02 in 10.0 mi ENE 9.2 mph - N/A   Overcast
6:08 PM 71.1 °F 64.0 °F 78% 30.03 in 10.0 mi ENE 6.9 mph - N/A   Overcast
6:53 PM 70.0 °F 64.0 °F 81% 30.02 in 10.0 mi NNE 3.5 mph - N/A   Overcast
7:26 PM 69.1 °F 64.9 °F 87% 30.05 in 1.8 mi Calm Calm - 0.00 in Rain Light Rain
7:37 PM 69.1 °F 64.9 °F 87% 30.05 in 1.5 mi NNW 4.6 mph - 0.00 in Rain Light Rain
7:53 PM 68.0 °F 64.9 °F 90% 30.04 in 2.0 mi Calm Calm - 0.01 in Rain Light Rain
8:02 PM 68.0 °F 64.9 °F 90% 30.06 in 3.0 mi Calm Calm - 0.00 in Rain Light Rain
8:35 PM 69.1 °F 64.9 °F 87% 30.07 in 10.0 mi NE 5.8 mph - 0.00 in   Overcast
8:53 PM 69.1 °F 64.0 °F 84% 30.06 in 10.0 mi ENE 3.5 mph - 0.00 in   Overcast
10:53 PM 68.0 °F 64.0 °F 87% 30.09 in 10.0 mi Calm Calm - N/A   Overcast
11:53 PM 66.9 °F 61.0 °F 81% 30.10 in 10.0 mi Calm Calm - N/A   Overcast